AirNav   Duncan Aviation - Near you to keep you flying
 
 822 users online  

F88 Jonesboro Airport
Jonesboro, Louisiana, USA

GOING TO JONESBORO?


FAA INFORMATION EFFECTIVE 16 JUNE 2022

Location

FAA Identifier: F88
Lat/Long: 32-12-07.2000N 092-43-58.6000W
32-12.120000N 092-43.976667W
32.2020000,-92.7329444
(estimated)
Elevation: 255.6 ft. / 77.9 m (surveyed)
Variation: 01E (2010)
From city: 3 miles S of JONESBORO, LA
Time zone: UTC -5 (UTC -6 during Standard Time)
Zip code: 71251

Airport Operations

Airport use: Open to the public
Activation date: 03/1964
Control tower: no
ARTCC: FORT WORTH CENTER
FSS: DE RIDDER FLIGHT SERVICE STATION
NOTAMs facility: DRI (NOTAM-D service available)
Attendance: UNATNDD
Wind indicator: yes, LGTD WINDSOCK OTS MIDFIELD.
Segmented circle: yes
Lights: REIL RWYS 18 & 36 AND MIRL RWY 18/36, PRESET LOW INTST; TO INCR INTST ACTVT - CTAF. PAPI RWY 36 OTS INDEFLY.
Beacon: white-green (lighted land airport)
Operates sunset to sunrise.

Airport Communications

CTAF: 122.9
MONROE APPROACH: 126.9
MONROE DEPARTURE: 126.9
  • APCH/DEP CTL SVC PRVDD BY FORT WORTH ARTCC (ZFW) ON FREQS 126.325/346.25 (MONROE RCAG) WHEN MONROE APCH CTL (MLU) CLSD.

Airport Services

Parking: tiedowns
Airframe service: NONE
Powerplant service: NONE
Bottled oxygen: NONE
Bulk oxygen: NONE

Runway Information

Runway 18/36

Dimensions: 3204 x 75 ft. / 977 x 23 m
Surface: asphalt, in good condition
Weight bearing capacity: 
Single wheel: 28.0
Runway edge lights: medium intensity
RUNWAY 18  RUNWAY 36
Latitude: 32-12.383912N32-11.855510N
Longitude: 092-43.980422W092-43.971602W
Elevation: 248.7 ft.255.5 ft.
Traffic pattern: leftleft
Runway heading: 178 magnetic, 179 true358 magnetic, 359 true
Markings: nonprecision, in good conditionnonprecision, in good condition
Visual slope indicator: 2-light PAPI on left (3.00 degrees glide path)2-light PAPI on left (3.00 degrees glide path)
Runway end identifier lights: yesyes
Touchdown point: yes, no lightsyes, no lights
Obstructions: 80 ft. trees, 2250 ft. from runway, 25:1 slope to clear85 ft. trees, 2693 ft. from runway, 46 ft. right of centerline, 29:1 slope to clear

Airport Ownership and Management from official FAA records

Ownership: Publicly-owned
Owner: CITY OF JONESBORO
128 ALLEN AVE
JONESBORO, LA 71251
Phone 318-259-2385
Manager: DR. HERBERT SIMMONS JR.
242 DOGWOOD DR.
JONESBORO, LA 71251
Phone 318-533-7811

Airport Operational Statistics

Aircraft based on the field: 9
Single engine airplanes: 9
    
Aircraft operations: avg 115/week *
67% transient general aviation
33% local general aviation
* for 12-month period ending 16 December 2020

Additional Remarks

DEER AND WILDLIFE ON & INVOF ARPT.
SOUTH HOLD LINE NSTD DISTANCE FM RY CNTRLN.
FOR CD CTC MONROE APCH AT 318-327-5641, IF UNAVBL, CTC FORT WORTH ARTCC AT 817-858-7584.

Instrument Procedures

NOTE: All procedures below are presented as PDF files. If you need a reader for these files, you should download the free Adobe Reader.

NOT FOR NAVIGATION. Please procure official charts for flight.
FAA instrument procedures published for use from 16 June 2022 at 0901Z to 14 July 2022 at 0900z.

 
IAPs - Instrument Approach Procedures
RNAV (GPS) RWY 18   download (198KB)
RNAV (GPS) RWY 36   download (212KB)
NOTE: Special Take-Off Minimums/Departure Procedures apply   download (116KB)

Other nearby airports with instrument procedures:

0R5 - David G Joyce Airport (15 nm S)
KRSN - Ruston Regional Airport (20 nm N)
0R7 - The Red River Airport (32 nm SW)
KIER - Natchitoches Regional Airport (34 nm SW)
KMNE - Minden Airport (39 nm NW)
 
Loc | Ops | Rwys | IFR | FBO | Links
Com | Nav | Svcs | Stats | Notes
Area around F88 (Jonesboro Airport)
 
Road maps at: MapQuest Bing Google
 
Aerial photo
WARNING: Photo may not be current or correct
Aerial photo of F88 (Jonesboro Airport)
Photo by Ken DeSoto
Photo taken 15-Apr-2014
looking south.

Do you have a better or more recent aerial photo of Jonesboro Airport that you would like to share? If so, please send us your photo.

 
Sectional chart

 
Airport distance calculator
Flying to Jonesboro Airport? Find the distance to fly.

From to F88

Sunrise and sunset
Times for 02-Jul-2022
 Local
(UTC-5)
 Zulu
(UTC)
Morning civil twilight05:4110:41
Sunrise06:0911:09
Sunset20:2001:20
Evening civil twilight20:4901:49

Current date and time
Zulu (UTC)  02-Jul-2022 12:32:45
Local (UTC-5)  02-Jul-2022 07:32:45
 
METAR
KRSN 
20nm N 
021215Z AUTO 16005KT 7SM OVC004 24/23 A3002 RMK AO2 T02400230
KIER 
34nm SW 
021215Z AUTO 18003KT 10SM OVC008 24/24 A2998 RMK AO2 LTG DSNT W AND NW T02420239
KMNE 
39nm NW 
021215Z AUTO 10003KT 2SM +RA SCT004 BKN014 OVC021 23/23 A2998 RMK AO2 P0023 T02320232
KMLU 
40nm NE 
021153Z 00000KT 6SM HZ OVC008 24/23 A2999 RMK AO2 SLP155 T02440228 10250 20239 53005
TAF
KMLU 
40nm NE 
021148Z 0212/0312 VRB03KT P6SM VCSH BKN010 FM021600 17006KT 3SM -TSRA OVC007CB FM022100 19007KT P6SM VCSH BKN025 FM030000 VRB03KT P6SM SCT025 BKN100 BKN250 FM030300 15005KT P6SM BKN025 BKN100 BKN250
NOTAMs
Click for the latest NOTAMs
NOTAMs are issued by the DoD/FAA and will open in a separate window not controlled by AirNav.

 

 
 

Would you like to see your business listed on this page?

 If your business provides an interesting product or service to pilots, flight crews, aircraft, or users of the Jonesboro Airport, you should consider listing it here.  To start the listing process, click on the button below
 
Add a business
 

Other Pages about Jonesboro Airport

Update a link
 
Copyright © AirNav, LLC. All rights reserved. Privacy Policy  Contact